EN

Hourly Weather Godynice

Today, 18 May, Tuesday

Time Temperature Precipitation Wind Pressure Humidity
00:00 +9°C° 1.4 mm 2 mps 737 mmHg 96%
01:00 +10°C° 0 mm 1 mps 737 mmHg 96%
02:00 +10°C° 0.5 mm 1 mps 737 mmHg 96%
03:00 +9°C° 0.5 mm 2 mps 737 mmHg 96%
04:00 +9°C° 0.5 mm 2 mps 737 mmHg 96%
05:00 +9°C° 0.4 mm 3 mps 738 mmHg 95%
06:00 +10°C° 0.4 mm 4 mps 738 mmHg 95%
07:00 +9°C° 0.4 mm 5 mps 738 mmHg 94%
08:00 +10°C° 0.2 mm 5 mps 739 mmHg 91%
09:00 +10°C° 0.2 mm 5 mps 739 mmHg 88%
10:00 +12°C° 0.2 mm 5 mps 739 mmHg 85%
11:00 +11°C° 0.4 mm 6 mps 739 mmHg 84%
12:00 +13°C° 0.4 mm 6 mps 739 mmHg 82%
13:00 +12°C° 0.4 mm 7 mps 740 mmHg 80%
14:00 +12°C° 0.4 mm 7 mps 740 mmHg 81%
15:00 +12°C° 0.4 mm 7 mps 740 mmHg 81%
16:00 +13°C° 0.4 mm 6 mps 740 mmHg 82%
17:00 +13°C° 0.2 mm 6 mps 740 mmHg 83%
18:00 +12°C° 0.2 mm 5 mps 740 mmHg 85%
19:00 +12°C° 0.2 mm 5 mps 740 mmHg 86%
20:00 +10°C° 0 mm 5 mps 740 mmHg 87%
21:00 +9°C° 0 mm 5 mps 741 mmHg 88%
22:00 +10°C° 0 mm 4 mps 741 mmHg 90%
23:00 +8°C° 0 mm 4 mps 741 mmHg 92%

Tomorrow, 19 May, Wednesday

Time Temperature Precipitation Wind Pressure Humidity
00:00 +8°C° 0 mm 4 mps 741 mmHg 94%
01:00 +7°C° 0 mm 4 mps 741 mmHg 95%
02:00 +7°C° 0.1 mm 4 mps 741 mmHg 96%
03:00 +6°C° 0.1 mm 4 mps 742 mmHg 96%
04:00 +6°C° 0.1 mm 4 mps 742 mmHg 96%
05:00 +7°C° 0 mm 4 mps 742 mmHg 92%
06:00 +8°C° 0 mm 4 mps 742 mmHg 88%
07:00 +10°C° 0 mm 4 mps 742 mmHg 84%
08:00 +10°C° 0.2 mm 5 mps 742 mmHg 79%
09:00 +12°C° 0.2 mm 5 mps 742 mmHg 74%
10:00 +14°C° 0.2 mm 5 mps 742 mmHg 69%
11:00 +14°C° 0.4 mm 5 mps 742 mmHg 67%
12:00 +14°C° 0.4 mm 5 mps 742 mmHg 66%
13:00 +15°C° 0.4 mm 5 mps 742 mmHg 64%
14:00 +14°C° 0.4 mm 5 mps 742 mmHg 66%
15:00 +14°C° 0.4 mm 4 mps 742 mmHg 68%
16:00 +14°C° 0.4 mm 4 mps 742 mmHg 69%
17:00 +13°C° 0.4 mm 4 mps 742 mmHg 75%
18:00 +12°C° 0.4 mm 3 mps 743 mmHg 80%
19:00 +11°C° 0.4 mm 3 mps 743 mmHg 86%
20:00 +10°C° 0 mm 3 mps 743 mmHg 88%
21:00 +9°C° 0 mm 3 mps 743 mmHg 91%
22:00 +8°C° 0 mm 3 mps 743 mmHg 93%
23:00 +8°C° 0 mm 3 mps 743 mmHg 93%

Day after tomorrow, 20 May, Thursday

Time Temperature Precipitation Wind Pressure Humidity
00:00 +8°C° 0 mm 3 mps 744 mmHg 93%
01:00 +7°C° 0 mm 3 mps 744 mmHg 93%
02:00 +7°C° 0 mm 3 mps 744 mmHg 93%
03:00 +5°C° 0 mm 3 mps 744 mmHg 93%
04:00 +6°C° 0 mm 2 mps 744 mmHg 93%
05:00 +7°C° 0 mm 3 mps 745 mmHg 88%
06:00 +8°C° 0 mm 3 mps 745 mmHg 82%
07:00 +10°C° 0 mm 3 mps 745 mmHg 77%
08:00 +11°C° 0 mm 4 mps 745 mmHg 72%
09:00 +12°C° 0 mm 4 mps 746 mmHg 67%
10:00 +14°C° 0 mm 4 mps 746 mmHg 63%
11:00 +14°C° 0.1 mm 4 mps 746 mmHg 60%
12:00 +15°C° 0.1 mm 4 mps 746 mmHg 56%
13:00 +17°C° 0.1 mm 4 mps 746 mmHg 53%
14:00 +15°C° 0.3 mm 4 mps 746 mmHg 59%
15:00 +15°C° 0.3 mm 5 mps 746 mmHg 65%
16:00 +14°C° 0.3 mm 5 mps 746 mmHg 71%
17:00 +13°C° 0.5 mm 4 mps 746 mmHg 77%
18:00 +12°C° 0.5 mm 4 mps 746 mmHg 82%
19:00 +11°C° 0.5 mm 3 mps 746 mmHg 87%
20:00 +10°C° 0 mm 3 mps 747 mmHg 89%
21:00 +9°C° 0 mm 3 mps 747 mmHg 91%
22:00 +8°C° 0 mm 3 mps 747 mmHg 93%
23:00 +8°C° 0 mm 3 mps 747 mmHg 93%

21 May, Friday

Time Temperature Precipitation Wind Pressure Humidity
00:00 +7°C° 0 mm 2 mps 747 mmHg 92%
01:00 +7°C° 0 mm 2 mps 748 mmHg 92%
02:00 +6°C° 0 mm 2 mps 747 mmHg 92%
03:00 +6°C° 0 mm 2 mps 747 mmHg 92%
04:00 +6°C° 0 mm 2 mps 747 mmHg 91%
05:00 +7°C° 0 mm 2 mps 747 mmHg 87%
06:00 +9°C° 0 mm 2 mps 747 mmHg 83%
07:00 +11°C° 0 mm 3 mps 747 mmHg 79%
08:00 +12°C° 0 mm 3 mps 747 mmHg 72%
09:00 +13°C° 0 mm 4 mps 747 mmHg 65%
10:00 +15°C° 0 mm 4 mps 746 mmHg 58%
11:00 +17°C° 0 mm 4 mps 746 mmHg 55%
12:00 +17°C° 0 mm 4 mps 746 mmHg 52%
13:00 +17°C° 0 mm 5 mps 745 mmHg 49%
14:00 +17°C° 0 mm 5 mps 745 mmHg 51%
15:00 +18°C° 0 mm 4 mps 744 mmHg 53%
16:00 +18°C° 0 mm 4 mps 744 mmHg 55%
17:00 +17°C° 0 mm 4 mps 743 mmHg 60%
18:00 +15°C° 0 mm 4 mps 743 mmHg 66%
19:00 +13°C° 0 mm 4 mps 742 mmHg 72%
20:00 +13°C° 0 mm 5 mps 742 mmHg 68%
21:00 +14°C° 0 mm 5 mps 742 mmHg 64%
22:00 +14°C° 0 mm 6 mps 741 mmHg 61%
23:00 +13°C° 0 mm 5 mps 741 mmHg 64%

22 May, Saturday

Time Temperature Precipitation Wind Pressure Humidity
00:00 +12°C° 0 mm 5 mps 741 mmHg 67%
01:00 +12°C° 0 mm 5 mps 740 mmHg 71%
02:00 +12°C° 0 mm 5 mps 740 mmHg 70%
03:00 +11°C° 0 mm 6 mps 739 mmHg 68%
04:00 +11°C° 0 mm 6 mps 738 mmHg 67%
05:00 +11°C° 0 mm 6 mps 738 mmHg 68%
06:00 +13°C° 0 mm 6 mps 739 mmHg 69%
07:00 +14°C° 0 mm 5 mps 739 mmHg 70%
08:00 +15°C° 0 mm 6 mps 739 mmHg 66%
09:00 +16°C° 0 mm 6 mps 738 mmHg 61%
10:00 +18°C° 0 mm 7 mps 738 mmHg 57%
11:00 +17°C° 0 mm 6 mps 738 mmHg 60%
12:00 +17°C° 0 mm 5 mps 738 mmHg 63%
13:00 +17°C° 0 mm 4 mps 738 mmHg 65%
14:00 +15°C° 0.3 mm 4 mps 738 mmHg 73%
15:00 +14°C° 0.3 mm 4 mps 738 mmHg 80%
16:00 +13°C° 0.3 mm 4 mps 738 mmHg 87%
17:00 +12°C° 0 mm 4 mps 738 mmHg 87%
18:00 +12°C° 0 mm 4 mps 739 mmHg 86%
19:00 +11°C° 0 mm 4 mps 739 mmHg 86%
20:00 +11°C° 0.1 mm 4 mps 740 mmHg 85%
21:00 +11°C° 0.1 mm 4 mps 740 mmHg 85%
22:00 +11°C° 0.1 mm 4 mps 740 mmHg 84%
23:00 +9°C° 0 mm 5 mps 740 mmHg 83%

23 May, Sunday

Time Temperature Precipitation Wind Pressure Humidity
00:00 +8°C° 0 mm 5 mps 740 mmHg 82%
01:00 +8°C° 0 mm 5 mps 740 mmHg 80%
02:00 +7°C° 0 mm 5 mps 741 mmHg 83%
03:00 +7°C° 0 mm 4 mps 741 mmHg 87%
04:00 +6°C° 0 mm 4 mps 741 mmHg 90%
05:00 +8°C° 0 mm 4 mps 741 mmHg 85%
06:00 +9°C° 0 mm 5 mps 742 mmHg 80%
07:00 +10°C° 0 mm 5 mps 742 mmHg 75%
08:00 +12°C° 0.1 mm 5 mps 742 mmHg 72%
09:00 +13°C° 0.1 mm 6 mps 742 mmHg 69%
10:00 +13°C° 0.1 mm 6 mps 743 mmHg 66%
11:00 +14°C° 0.3 mm 6 mps 743 mmHg 66%
12:00 +14°C° 0.3 mm 6 mps 743 mmHg 65%
13:00 +14°C° 0.3 mm 6 mps 743 mmHg 65%
14:00 +14°C° 0.1 mm 6 mps 743 mmHg 65%
15:00 +14°C° 0.1 mm 6 mps 743 mmHg 66%
16:00 +14°C° 0.1 mm 6 mps 744 mmHg 66%
17:00 +13°C° 0.3 mm 5 mps 744 mmHg 70%
18:00 +12°C° 0.3 mm 4 mps 744 mmHg 74%
19:00 +11°C° 0.3 mm 4 mps 744 mmHg 78%
20:00 +10°C° 0 mm 3 mps 745 mmHg 80%
21:00 +9°C° 0 mm 3 mps 745 mmHg 82%
22:00 +8°C° 0 mm 3 mps 745 mmHg 83%
23:00 +8°C° 0 mm 3 mps 745 mmHg 84%
Show more